Location: Goettingen
(51.5300°N, 9.9433°E)
Time: 23:28:19
(UTC+02:00)

N. Korean satellite - Pass Details

Date: 01 October 2021
Orbit: 450 x 495 km, 97.3° (Epoch: 23 October)

Event Time Altitude Azimuth Distance (km) Brightness Sun altitude
Rises 05:49:20 0° 25° (NNE) 2,547 10.8 -15.0°
Reaches altitude 10° 05:51:49 10° 43° (NE) 1,670 10.2 -14.6°
Maximum altitude 05:54:31 20° 92° (E) 1,181 9.5 -14.2°
Drops below altitude 10° 05:57:14 10° 141° (SE) 1,676 9.6 -13.8°
Sets 05:59:43 0° 159° (SSE) 2,558 10.4 -13.4°
